Location: Pitton
(51.0667°N, 1.7000°W)
Time: 13:44:44
(UTC+00:00)

CZ-2C R/B - Pass Details

Date: 17 September 2019
Orbit: 785 x 870 km, 98.3° (Epoch: 17 October)

Event Time Altitude Azimuth Distance (km) Brightness Sun altitude
Rises 20:48:05 0° 17° (NNE) 3,424 6.1 -22.9°
Reaches altitude 10° 20:50:31 10° 23° (NNE) 2,494 5.3 -23.2°
Enters shadow 20:55:49 53° 94° (E) 1,057 2.8 -23.9°
